Location: Unspecified
(0.0000°N, 0.0000°E)
Time: 17:14:13
(UTC+00:00)

Tiros 1 despin weight - Pass Details

Date: 22 May 2026
Orbit: 555 x 591 km, 48.2° (Epoch: 1 June)

Event Time Altitude Azimuth Distance (km) Brightness Sun altitude
Rises 11:00:22 0° 322° (NW) 2,712 ? 65.4°
Reaches altitude 10° 11:02:36 10° 323° (NW) 1,823 ? 65.7°
Maximum altitude 11:06:46 84° 50° (NE) 561 ? 66.2°
Drops below altitude 10° 11:10:59 10° 139° (SE) 1,843 ? 66.7°
Sets 11:13:14 0° 140° (SE) 2,746 ? 67.0°
